Change the Weather History Date:

Friday, August 16, 2013

  Actual Average Record
Temperature  
Mean Temperature 67 °F 76 °F  
Max Temperature 77 °F 87 °F 105 °F (1936)
Min Temperature 57 °F 65 °F 52 °F (1992)
Degree Days  
Heating Degree Days 0 0  
Month to date heating degree days 0 0  
Since 1 June heating degree days 17 9  
Since 1 July heating degree days 2 1  
Cooling Degree Days 2 11  
Month to date cooling degree days 132 186  
Year to date cooling degree days 879 940  
Since 1 June cooling degree days 753 827  
Growing Degree Days 18 (Base 50)    
Moisture  
Dew Point 56 °F    
Average Humidity 70    
Maximum Humidity 93    
Minimum Humidity 46    
Precipitation  
Precipitation 0.00 in 0.13 in 2.23 in (1990)
Month to date precipitation 1.26 1.89  
Year to date precipitation 19.67 24.21  
Sea Level Pressure  
Sea Level Pressure 30.13 in    
Wind  
Wind Speed 4 mph (ESE)    
Max Wind Speed 12 mph    
Max Gust Speed 15 mph    
Visibility 10 miles    
Events      
T = Trace of Precipitation, MM = Missing Value Source: NWS Daily Summary

Daily Weather History Graph

Daily Weather History Graph

Search for Another Location

Airport or City:

Trip Planner

Search our weather history database for the weather conditions in past years. The results will help you decide how hot, cold, wet, or windy it might be!

Date:

Astronomy

Aug. 16, 2013 Rise Set
Actual Time 6:32 AM CDT 8:14 PM CDT
Civil Twilight 6:04 AM CDT 8:42 PM CDT
Nautical Twilight 5:29 AM CDT 9:17 PM CDT
Astronomical Twilight 4:51 AM CDT 9:54 PM CDT
Moon 4:33 PM CDT (8/16) 1:36 AM CDT (8/16)
Length of Visible Light 14h 38m
Length of Day
13h 41m
Waxing Gibbous, 75% of the Moon is Illuminated
Aug 16
Waxing Gibbous
Aug 20
Full
Aug 28
Last Quarter
Sep 5
New
Sep 12
First Quarter

Hourly Weather History & Observations

Time (CDT) Temp. Dew Point Humidity Pressure Visibility Wind Dir Wind Speed Gust Speed Precip Events Conditions
12:53 AM 64.9 °F 55.9 °F 73% 30.10 in 10.0 mi ESE 4.6 mph - N/A   Overcast
1:53 AM 64.9 °F 55.9 °F 73% 30.09 in 10.0 mi ESE 4.6 mph - N/A   Overcast
2:53 AM 64.0 °F 55.9 °F 75% 30.09 in 10.0 mi SE 4.6 mph - N/A   Overcast
3:53 AM 62.1 °F 55.9 °F 80% 30.10 in 10.0 mi Calm Calm - N/A   Partly Cloudy
4:53 AM 62.1 °F 57.0 °F 84% 30.10 in 10.0 mi NW 3.5 mph - N/A   Overcast
5:53 AM 63.0 °F 55.9 °F 78% 30.11 in 10.0 mi Calm Calm - N/A   Overcast
6:53 AM 64.0 °F 57.0 °F 78% 30.12 in 10.0 mi Calm Calm - N/A   Overcast
7:53 AM 64.9 °F 55.9 °F 73% 30.14 in 10.0 mi Calm Calm - N/A   Overcast
8:53 AM 66.0 °F 55.9 °F 70% 30.16 in 10.0 mi East 3.5 mph - N/A   Overcast
9:53 AM 66.0 °F 57.0 °F 73% 30.16 in 10.0 mi East 8.1 mph - N/A   Mostly Cloudy
10:53 AM 71.1 °F 55.9 °F 59% 30.17 in 10.0 mi ESE 9.2 mph - N/A   Scattered Clouds
11:53 AM 71.1 °F 55.0 °F 57% 30.17 in 10.0 mi SE 8.1 mph - N/A   Scattered Clouds
12:53 PM 75.0 °F 55.9 °F 51% 30.15 in 10.0 mi East 10.4 mph - N/A   Overcast
1:53 PM 73.9 °F 55.9 °F 53% 30.14 in 10.0 mi Variable 4.6 mph - N/A   Overcast
2:53 PM 75.9 °F 55.0 °F 48% 30.13 in 10.0 mi East 3.5 mph - N/A   Partly Cloudy
3:53 PM 75.9 °F 55.0 °F 48% 30.13 in 10.0 mi East 11.5 mph - N/A   Overcast
4:53 PM 75.9 °F 54.0 °F 46% 30.13 in 10.0 mi East 8.1 mph - N/A   Partly Cloudy
5:53 PM 75.9 °F 54.0 °F 46% 30.13 in 10.0 mi SE 6.9 mph - N/A   Clear
6:53 PM 75.0 °F 54.0 °F 48% 30.13 in 10.0 mi SE 8.1 mph - N/A   Overcast
7:53 PM 72.0 °F 55.9 °F 57% 30.14 in 10.0 mi SE 3.5 mph - N/A   Overcast
8:53 PM 66.0 °F 61.0 °F 84% 30.14 in 10.0 mi Calm Calm - N/A   Overcast
9:53 PM 62.1 °F 57.9 °F 86% 30.16 in 10.0 mi Calm Calm - N/A   Clear
10:53 PM 60.1 °F 57.0 °F 90% 30.17 in 10.0 mi Calm Calm - N/A   Clear
11:53 PM 57.9 °F 55.9 °F 93% 30.17 in 10.0 mi North 3.5 mph - N/A   Clear